TimeEST,TemperatureF,Dew PointF,Humidity,Sea Level PressureIn,VisibilityMPH,Wind Direction,Wind SpeedMPH,Gust SpeedMPH,PrecipitationIn,Events,Conditions,WindDirDegrees,DateUTC
12:53 AM,37.9,30.0,73,30.06,10.0,ENE,5.8,-,N/A,,Overcast,70,2012-11-06 05:53:00
1:53 AM,37.9,28.9,70,30.05,10.0,ENE,3.5,-,N/A,,Overcast,70,2012-11-06 06:53:00
2:53 AM,37.9,28.0,68,30.06,10.0,Calm,Calm,-,N/A,,Overcast,0,2012-11-06 07:53:00
3:53 AM,37.0,28.0,70,30.04,10.0,North,3.5,-,N/A,,Overcast,10,2012-11-06 08:53:00
4:53 AM,36.0,28.0,73,30.04,10.0,Calm,Calm,-,N/A,,Overcast,0,2012-11-06 09:53:00
5:53 AM,34.0,28.0,79,30.04,10.0,Calm,Calm,-,N/A,,Scattered Clouds,0,2012-11-06 10:53:00
6:53 AM,33.1,28.0,82,30.04,10.0,Calm,Calm,-,N/A,,Clear,0,2012-11-06 11:53:00
7:53 AM,34.0,28.0,79,30.04,10.0,Calm,Calm,-,N/A,,Clear,0,2012-11-06 12:53:00
8:53 AM,37.0,28.9,73,30.05,10.0,ENE,3.5,-,N/A,,Clear,60,2012-11-06 13:53:00
9:53 AM,39.9,30.0,68,30.04,10.0,East,4.6,-,N/A,,Clear,90,2012-11-06 14:53:00
10:53 AM,44.1,30.9,60,30.04,10.0,Calm,Calm,-,N/A,,Clear,0,2012-11-06 15:53:00
11:53 AM,48.0,30.9,52,30.02,10.0,Calm,Calm,-,N/A,,Clear,0,2012-11-06 16:53:00
12:53 PM,52.0,32.0,47,29.99,10.0,Variable,3.5,-,N/A,,Clear,0,2012-11-06 17:53:00
1:53 PM,52.0,30.9,45,29.96,10.0,Calm,Calm,-,N/A,,Clear,0,2012-11-06 18:53:00
2:53 PM,53.1,32.0,45,29.94,10.0,Calm,Calm,-,N/A,,Clear,0,2012-11-06 19:53:00
3:53 PM,53.1,32.0,45,29.94,10.0,West,5.8,-,N/A,,Scattered Clouds,270,2012-11-06 20:53:00
4:53 PM,50.0,30.9,48,29.93,10.0,Calm,Calm,-,N/A,,Partly Cloudy,0,2012-11-06 21:53:00
5:53 PM,48.0,33.1,56,29.92,10.0,Calm,Calm,-,N/A,,Overcast,0,2012-11-06 22:53:00
6:53 PM,46.9,34.0,61,29.93,10.0,Calm,Calm,-,N/A,,Overcast,0,2012-11-06 23:53:00
7:53 PM,46.0,36.0,68,29.94,10.0,Calm,Calm,-,N/A,,Overcast,0,2012-11-07 00:53:00
8:53 PM,45.0,36.0,71,29.93,10.0,Calm,Calm,-,N/A,,Overcast,0,2012-11-07 01:53:00
9:53 PM,45.0,35.1,68,29.93,10.0,Calm,Calm,-,N/A,,Overcast,0,2012-11-07 02:53:00
10:53 PM,44.1,36.0,73,29.91,10.0,Calm,Calm,-,N/A,,Overcast,0,2012-11-07 03:53:00
11:53 PM,45.0,34.0,65,29.91,10.0,Variable,3.5,-,N/A,,Overcast,0,2012-11-07 04:53:00